datetime,inst air temperature
1990-10-01,43.7
1990-10-02,37.58
1990-10-03,35.24
1990-10-04,37.58
1990-10-05,45.5
1990-10-06,22.1
1990-10-07,21.02
1990-10-08,23.72
1990-10-09,29.48
1990-10-10,32.0
1990-10-11,22.64
1990-10-12,29.12
1990-10-13,39.2
1990-10-14,24.62
1990-10-15,38.84
1990-10-16,38.12
1990-10-17,25.16
1990-10-18,38.12
1990-10-19,30.38
1990-10-20,24.62
1990-10-21,28.4
1990-10-22,40.82
1990-10-23,28.94
1990-10-24,35.78
1990-10-25,37.22
1990-10-26,37.04
1990-10-27,34.7
1990-10-28,41.0
1990-10-29,25.7
1990-10-30,38.48
1990-10-31,37.22
1990-11-01,26.6
1990-11-02,17.06
1990-11-03,27.86
1990-11-04,32.0
1990-11-05,27.68
1990-11-06,26.06
1990-11-07,24.62
1990-11-08,41.54
1990-11-09,30.02
1990-11-10,28.4
1990-11-11,28.76
1990-11-12,30.2
1990-11-13,35.24
1990-11-14,28.4
1990-11-15,18.14
1990-11-16,23.72
1990-11-17,26.06
1990-11-18,30.92
1990-11-19,27.14
1990-11-20,24.44
1990-11-21,29.3
1990-11-22,31.46
1990-11-23,24.98
1990-11-24,25.52
1990-11-25,36.14
1990-11-26,21.74
1990-11-27,23.72
1990-11-28,14.54
1990-11-29,22.82
1990-11-30,25.88
1990-12-01,10.58
1990-12-02,23.0
1990-12-03,19.22
1990-12-04,24.44
1990-12-05,26.6
1990-12-06,18.14
1990-12-07,19.4
1990-12-08,27.68
1990-12-09,29.84
1990-12-10,33.8
1990-12-11,25.88
1990-12-12,12.38
1990-12-13,21.02
1990-12-14,16.34
1990-12-15,20.12
1990-12-16,24.62
1990-12-17,24.98
1990-12-18,31.1
1990-12-19,13.28
1990-12-20,-4.0
1990-12-21,-20.2
1990-12-22,-14.98
1990-12-23,2.84
1990-12-24,-1.3
1990-12-25,19.94
1990-12-26,20.12
1990-12-27,17.24
1990-12-28,21.38
1990-12-29,-1.12
1990-12-30,-2.02
1990-12-31,9.86
1991-01-01,17.6
1991-01-02,15.98
1991-01-03,17.6
1991-01-04,16.16
1991-01-05,15.8
1991-01-06,20.12
1991-01-07,28.4
1991-01-08,16.7
1991-01-09,22.82
1991-01-10,31.28
1991-01-11,31.28
1991-01-12,35.6
1991-01-13,38.12
1991-01-14,36.14
1991-01-15,33.26
1991-01-16,22.82
1991-01-17,26.96
1991-01-18,28.76
1991-01-19,28.94
1991-01-20,16.16
1991-01-21,19.4
1991-01-22,20.48
1991-01-23,18.86
1991-01-24,15.08
1991-01-25,13.64
1991-01-26,16.7
1991-01-27,14.72
1991-01-28,13.28
1991-01-29,11.48
1991-01-30,16.16
1991-01-31,29.12
1991-02-01,28.22
1991-02-02,32.54
1991-02-03,31.64
1991-02-04,31.64
1991-02-05,33.26
1991-02-06,27.5
1991-02-07,25.16
1991-02-08,26.06
1991-02-09,24.62
1991-02-10,22.82
1991-02-11,32.0
1991-02-12,25.52
1991-02-13,36.14
1991-02-14,29.3
1991-02-15,31.46
1991-02-16,33.08
1991-02-17,29.3
1991-02-18,30.2
1991-02-19,29.3
1991-02-20,31.64
1991-02-21,23.36
1991-02-22,25.88
1991-02-23,24.8
1991-02-24,24.8
1991-02-25,24.98
1991-02-26,23.72
1991-02-27,24.62
1991-02-28,29.12
1991-03-01,31.64
1991-03-02,30.56
1991-03-03,32.18
1991-03-04,32.36
1991-03-05,21.38
1991-03-06,19.4
1991-03-07,12.02
1991-03-08,16.34
1991-03-09,26.06
1991-03-10,24.08
1991-03-11,18.32
1991-03-12,25.52
1991-03-13,22.28
1991-03-14,24.62
1991-03-15,14.54
1991-03-16,16.16
1991-03-17,29.3
1991-03-18,26.78
1991-03-19,17.78
1991-03-20,24.98
1991-03-21,23.36
1991-03-22,22.64
1991-03-23,28.04
1991-03-24,23.18
1991-03-25,25.34
1991-03-26,23.72
1991-03-27,15.98
1991-03-28,21.2
1991-03-29,27.32
1991-03-30,26.06
1991-03-31,29.84
1991-04-01,27.32
1991-04-02,31.82
1991-04-03,24.26
1991-04-04,39.38
1991-04-05,37.4
1991-04-06,29.3
1991-04-07,22.82
1991-04-08,15.26
1991-04-09,33.62
1991-04-10,18.86
1991-04-11,11.66
1991-04-12,32.18
1991-04-13,25.52
1991-04-14,29.66
1991-04-15,27.14
1991-04-16,28.04
1991-04-17,27.86
1991-04-18,25.52
1991-04-19,28.22
1991-04-20,29.84
1991-04-21,33.8
1991-04-22,32.54
1991-04-23,29.84
1991-04-24,33.44
1991-04-25,24.98
1991-04-26,25.88
1991-04-27,19.76
1991-04-28,24.08
1991-04-29,24.62
1991-04-30,25.7
1991-05-01,32.36
1991-05-02,32.18
1991-05-03,27.32
1991-05-04,25.7
1991-05-05,32.54
1991-05-06,26.96
1991-05-07,31.64
1991-05-08,32.0
1991-05-09,24.98
1991-05-10,28.76
1991-05-11,31.28
1991-05-12,37.04
1991-05-13,33.26
1991-05-14,32.72
1991-05-15,27.5
1991-05-16,35.42
1991-05-17,30.56
1991-05-18,26.96
1991-05-19,29.84
1991-05-20,32.18
1991-05-21,32.9
1991-05-22,32.36
1991-05-23,29.12
1991-05-24,32.36
1991-05-25,31.46
1991-05-26,25.16
1991-05-27,30.92
1991-05-28,27.14
1991-05-29,26.6
1991-05-30,30.2
1991-05-31,29.12
1991-06-01,32.54
1991-06-02,36.14
1991-06-03,38.84
1991-06-04,26.96
1991-06-05,25.16
1991-06-06,35.24
1991-06-07,31.46
1991-06-08,34.52
1991-06-09,38.48
1991-06-10,43.88
1991-06-11,46.4
1991-06-12,33.08
1991-06-13,32.36
1991-06-14,26.42
1991-06-15,31.82
1991-06-16,34.88
1991-06-17,28.04
1991-06-18,36.86
1991-06-19,39.02
1991-06-20,34.7
1991-06-21,30.56
1991-06-22,40.28
1991-06-23,36.14
1991-06-24,41.72
1991-06-25,42.26
1991-06-26,40.82
1991-06-27,39.2
1991-06-28,43.88
1991-06-29,44.96
1991-06-30,41.9
1991-07-01,40.28
1991-07-02,47.66
1991-07-03,52.16
1991-07-04,52.52
1991-07-05,51.44
1991-07-06,45.86
1991-07-07,45.5
1991-07-08,44.96
1991-07-09,41.36
1991-07-10,35.6
1991-07-11,40.28
1991-07-12,44.96
1991-07-13,53.96
1991-07-14,44.6
1991-07-15,42.26
1991-07-16,48.02
1991-07-17,60.26
1991-07-18,39.74
1991-07-19,43.88
1991-07-20,42.62
1991-07-21,39.38
1991-07-22,46.22
1991-07-23,48.74
1991-07-24,50.18
1991-07-25,40.1
1991-07-26,47.12
1991-07-27,44.42
1991-07-28,46.04
1991-07-29,45.14
1991-07-30,42.08
1991-07-31,46.76
1991-08-01,41.18
1991-08-02,42.08
1991-08-03,44.42
1991-08-04,49.64
1991-08-05,48.92
1991-08-06,45.32
1991-08-07,49.28
1991-08-08,44.42
1991-08-09,43.16
1991-08-10,42.08
1991-08-11,38.84
1991-08-12,40.82
1991-08-13,43.7
1991-08-14,43.7
1991-08-15,53.24
1991-08-16,47.12
1991-08-17,47.66
1991-08-18,47.3
1991-08-19,48.38
1991-08-20,50.9
1991-08-21,46.04
1991-08-22,47.84
1991-08-23,45.68
1991-08-24,41.54
1991-08-25,37.94
1991-08-26,39.38
1991-08-27,38.84
1991-08-28,46.76
1991-08-29,41.72
1991-08-30,42.8
1991-08-31,40.82
1991-09-01,49.64
1991-09-02,38.84
1991-09-03,42.98
1991-09-04,78.8
1991-09-05,49.64
1991-09-06,45.5
1991-09-07,43.52
1991-09-08,39.38
1991-09-09,31.82
1991-09-10,33.08
1991-09-11,35.6
1991-09-12,38.84
1991-09-13,40.82
1991-09-14,35.6
1991-09-15,36.32
1991-09-16,41.36
1991-09-17,45.68
1991-09-18,46.58
1991-09-19,47.3
1991-09-20,43.16
1991-09-21,26.24
1991-09-22,33.8
1991-09-23,39.92
1991-09-24,48.38
1991-09-25,45.32
1991-09-26,45.5
1991-09-27,44.24
1991-09-28,40.82
1991-09-29,41.36
1991-09-30,42.8
1991-10-01,43.88
1991-10-02,39.38
1991-10-03,39.56
1991-10-04,37.76
1991-10-05,40.1
1991-10-06,43.52
1991-10-07,36.14
1991-10-08,38.12
1991-10-09,38.84
1991-10-10,41.18
1991-10-11,42.98
1991-10-12,42.98
1991-10-13,38.66
1991-10-14,40.46
1991-10-15,42.62
1991-10-16,39.38
1991-10-17,33.44
1991-10-18,31.46
1991-10-19,34.88
1991-10-20,35.24
1991-10-21,36.5
1991-10-22,35.6
1991-10-23,27.86
1991-10-24,29.84
1991-10-25,31.82
1991-10-26,32.0
1991-10-27,25.52
1991-10-28,21.74
1991-10-29,30.56
1991-10-30,15.8
1991-10-31,21.74
1991-11-01,26.96
1991-11-02,28.22
1991-11-03,32.0
1991-11-04,32.54
1991-11-05,42.98
1991-11-06,43.7
1991-11-07,35.78
1991-11-08,41.18
1991-11-09,39.02
1991-11-10,28.58
1991-11-11,32.54
1991-11-12,34.88
1991-11-13,36.86
1991-11-14,26.6
1991-11-15,17.06
1991-11-16,22.64
1991-11-17,29.66
1991-11-18,28.58
1991-11-19,26.78
1991-11-20,33.08
1991-11-21,27.32
1991-11-22,14.0
1991-11-23,21.02
1991-11-24,32.18
1991-11-25,31.28
1991-11-26,30.2
1991-11-27,27.86
1991-11-28,22.28
1991-11-29,22.82
1991-11-30,8.24
1991-12-01,18.14
1991-12-02,31.64
1991-12-03,22.46
1991-12-04,22.28
1991-12-05,27.86
1991-12-06,37.04
1991-12-07,29.66
1991-12-08,16.34
1991-12-09,21.74
1991-12-10,27.5
1991-12-11,16.88
1991-12-12,31.64
1991-12-13,22.64
1991-12-14,18.5
1991-12-15,23.18
1991-12-16,21.74
1991-12-17,25.52
1991-12-18,31.64
1991-12-19,23.18
1991-12-20,14.18
1991-12-21,20.12
1991-12-22,22.28
1991-12-23,23.54
1991-12-24,19.76
1991-12-25,24.44
1991-12-26,30.38
1991-12-27,34.7
1991-12-28,33.26
1991-12-29,28.04
1991-12-30,19.94
1991-12-31,23.18
1992-01-01,24.44
1992-01-02,29.12
1992-01-03,23.18
1992-01-04,27.32
1992-01-05,31.64
1992-01-06,26.24
1992-01-07,23.9
1992-01-08,13.28
1992-01-09,19.4
1992-01-10,25.52
1992-01-11,25.34
1992-01-12,6.44
1992-01-13,21.74
1992-01-14,26.6
1992-01-15,26.96
1992-01-16,25.34
1992-01-17,30.02
1992-01-18,23.36
1992-01-19,13.46
1992-01-20,14.9
1992-01-21,33.08
1992-01-22,18.86
1992-01-23,18.68
1992-01-24,31.46
1992-01-25,32.9
1992-01-26,23.36
1992-01-27,35.78
1992-01-28,33.98
1992-01-29,28.76
1992-01-30,31.1
1992-01-31,34.7
1992-02-01,29.84
1992-02-02,20.66
1992-02-03,19.4
1992-02-04,28.76
1992-02-05,21.02
1992-02-06,32.18
1992-02-07,22.46
1992-02-08,23.54
1992-02-09,31.82
1992-02-10,34.7
1992-02-11,31.46
1992-02-12,33.8
1992-02-13,30.2
1992-02-14,30.02
1992-02-15,18.32
1992-02-16,25.7
1992-02-17,23.0
1992-02-18,29.66
1992-02-19,32.54
1992-02-20,36.5
1992-02-21,32.9
1992-02-22,31.46
1992-02-23,24.62
1992-02-24,28.76
1992-02-25,30.2
1992-02-26,36.86
1992-02-27,28.22
1992-02-28,29.66
1992-02-29,26.96
1992-03-01,33.08
1992-03-02,27.5
1992-03-03,34.34
1992-03-04,26.6
1992-03-05,32.0
1992-03-06,25.7
1992-03-07,31.64
1992-03-08,26.78
1992-03-09,23.0
1992-03-10,23.9
1992-03-11,25.7
1992-03-12,26.24
1992-03-13,26.96
1992-03-14,29.66
1992-03-15,28.94
1992-03-16,30.56
1992-03-17,29.84
1992-03-18,20.48
1992-03-19,23.72
1992-03-20,23.9
1992-03-21,25.16
1992-03-22,27.32
1992-03-23,28.4
1992-03-24,27.32
1992-03-25,29.3
1992-03-26,29.66
1992-03-27,26.06
1992-03-28,26.24
1992-03-29,29.48
1992-03-30,34.16
1992-03-31,33.26
1992-04-01,30.38
1992-04-02,31.46
1992-04-03,29.66
1992-04-04,27.86
1992-04-05,23.18
1992-04-06,25.16
1992-04-07,22.82
1992-04-08,33.08
1992-04-09,40.64
1992-04-10,38.48
1992-04-11,44.96
1992-04-12,36.32
1992-04-13,32.18
1992-04-14,33.44
1992-04-15,32.54
1992-04-16,39.56
1992-04-17,41.54
1992-04-18,31.64
1992-04-19,26.78
1992-04-20,34.16
1992-04-21,34.7
1992-04-22,25.16
1992-04-23,19.94
1992-04-24,28.94
1992-04-25,35.96
1992-04-26,37.94
1992-04-27,37.58
1992-04-28,41.18
1992-04-29,44.24
1992-04-30,37.04
1992-05-01,24.98
1992-05-02,29.48
1992-05-03,33.08
1992-05-04,36.86
1992-05-05,40.46
1992-05-06,42.8
1992-05-07,47.66
1992-05-08,42.26
1992-05-09,37.4
1992-05-10,35.78
1992-05-11,37.22
1992-05-12,26.6
1992-05-13,40.1
1992-05-14,37.4
1992-05-15,37.04
1992-05-16,35.6
1992-05-17,42.26
1992-05-18,37.76
1992-05-19,39.02
1992-05-20,37.94
1992-05-21,25.16
1992-05-22,32.0
1992-05-23,37.94
1992-05-24,42.26
1992-05-25,49.64
1992-05-26,43.7
1992-05-27,31.28
1992-05-28,35.96
1992-05-29,36.5
1992-05-30,46.4
1992-05-31,43.34
1992-06-01,47.12
1992-06-02,39.74
1992-06-03,41.0
1992-06-04,37.22
1992-06-05,33.44
1992-06-06,38.12
1992-06-07,36.68
1992-06-08,35.06
1992-06-09,42.62
1992-06-10,34.34
1992-06-11,39.56
1992-06-12,33.08
1992-06-13,32.9
1992-06-14,32.0
1992-06-15,34.34
1992-06-16,39.02
1992-06-17,36.14
1992-06-18,41.9
1992-06-19,42.8
1992-06-20,43.88
1992-06-21,47.84
1992-06-22,54.68
1992-06-23,54.32
1992-06-24,53.06
1992-06-25,53.78
1992-06-26,48.56
1992-06-27,47.48
1992-06-28,43.7
1992-06-29,39.92
1992-06-30,35.78
1992-07-01,42.62
1992-07-02,43.52
1992-07-03,41.72
1992-07-04,46.04
1992-07-05,45.5
1992-07-06,42.44
1992-07-07,35.06
1992-07-08,37.58
1992-07-09,36.14
1992-07-10,40.28
1992-07-11,46.04
1992-07-12,41.9
1992-07-13,45.68
1992-07-14,46.22
1992-07-15,43.52
1992-07-16,48.02
1992-07-17,54.5
1992-07-18,47.3
1992-07-19,51.62
1992-07-20,51.98
1992-07-21,39.38
1992-07-22,44.96
1992-07-23,42.26
1992-07-24,37.04
1992-07-25,44.06
1992-07-26,48.38
1992-07-27,48.74
1992-07-28,48.56
1992-07-29,46.22
1992-07-30,51.98
1992-07-31,51.98
1992-08-01,48.38
1992-08-02,45.32
1992-08-03,46.76
1992-08-04,42.98
1992-08-05,39.02
1992-08-06,41.72
1992-08-07,52.88
1992-08-08,41.72
1992-08-09,38.12
1992-08-10,46.22
1992-08-11,52.88
1992-08-12,57.56
1992-08-13,54.32
1992-08-14,56.66
1992-08-15,58.82
1992-08-16,56.12
1992-08-17,53.42
1992-08-18,53.24
1992-08-19,52.34
1992-08-20,44.96
1992-08-21,44.06
1992-08-22,33.98
1992-08-23,30.38
1992-08-24,36.32
1992-08-25,35.78
1992-08-26,38.12
1992-08-27,45.14
1992-08-28,43.88
1992-08-29,41.72
1992-08-30,41.36
1992-08-31,43.52
1992-09-01,39.38
1992-09-02,
1992-09-03,39.56
1992-09-04,43.34
1992-09-05,43.7
1992-09-06,29.3
1992-09-07,27.86
1992-09-08,35.6
1992-09-09,37.94
1992-09-10,45.32
1992-09-11,42.8
1992-09-12,44.96
1992-09-13,25.16
1992-09-14,30.2
1992-09-15,40.82
1992-09-16,35.24
1992-09-17,37.22
1992-09-18,38.84
1992-09-19,41.18
1992-09-20,37.4
1992-09-21,44.24
1992-09-22,48.92
1992-09-23,42.08
1992-09-24,44.96
1992-09-25,32.0
1992-09-26,34.7
1992-09-27,36.68
1992-09-28,39.02
1992-09-29,41.36
1992-09-30,44.78
1992-10-01,48.38
1992-10-02,34.7
1992-10-03,37.94
1992-10-04,28.04
1992-10-05,29.84
1992-10-06,30.92
1992-10-07,29.3
1992-10-08,33.98
1992-10-09,32.36
1992-10-10,37.4
1992-10-11,41.72
1992-10-12,41.18
1992-10-13,35.24
1992-10-14,29.84
1992-10-15,24.62
1992-10-16,30.02
1992-10-17,32.0
1992-10-18,35.42
1992-10-19,33.62
1992-10-20,35.6
1992-10-21,41.72
1992-10-22,35.42
1992-10-23,35.6
1992-10-24,32.54
1992-10-25,32.54
1992-10-26,33.08
1992-10-27,37.58
1992-10-28,40.28
1992-10-29,35.6
1992-10-30,31.82
1992-10-31,32.36
1992-11-01,44.24
1992-11-02,42.26
1992-11-03,26.06
1992-11-04,32.36
1992-11-05,31.1
1992-11-06,30.92
1992-11-07,42.44
1992-11-08,31.28
1992-11-09,26.96
1992-11-10,12.2
1992-11-11,18.68
1992-11-12,25.88
1992-11-13,27.68
1992-11-14,28.04
1992-11-15,28.76
1992-11-16,26.6
1992-11-17,31.1
1992-11-18,27.14
1992-11-19,30.56
1992-11-20,18.32
1992-11-21,27.68
1992-11-22,27.68
1992-11-23,19.04
1992-11-24,14.18
1992-11-25,25.34
1992-11-26,21.38
1992-11-27,33.8
1992-11-28,26.24
1992-11-29,15.8
1992-11-30,25.16
1992-12-01,30.92
1992-12-02,31.82
1992-12-03,24.26
1992-12-04,14.9
1992-12-05,1.76
1992-12-06,23.18
1992-12-07,27.32
1992-12-08,24.98
1992-12-09,26.96
1992-12-10,37.58
1992-12-11,19.94
1992-12-12,24.26
1992-12-13,10.58
1992-12-14,18.32
1992-12-15,21.92
1992-12-16,27.86
1992-12-17,21.92
1992-12-18,21.2
1992-12-19,9.86
1992-12-20,25.7
1992-12-21,28.22
1992-12-22,24.8
1992-12-23,18.5
1992-12-24,
1992-12-25,12.38
1992-12-26,22.46
1992-12-27,30.38
1992-12-28,28.4
1992-12-29,21.74
1992-12-30,17.42
1992-12-31,26.96
1993-01-01,23.0
1993-01-02,10.04
1993-01-03,19.22
1993-01-04,24.44
1993-01-05,20.84
1993-01-06,18.86
1993-01-07,21.74
1993-01-08,27.86
1993-01-09,17.96
1993-01-10,11.48
1993-01-11,13.82
1993-01-12,15.08
1993-01-13,18.32
1993-01-14,26.6
1993-01-15,14.54
1993-01-16,26.24
1993-01-17,12.02
1993-01-18,19.04
1993-01-19,21.02
1993-01-20,31.28
1993-01-21,27.5
1993-01-22,27.32
1993-01-23,6.44
1993-01-24,30.38
1993-01-25,23.72
1993-01-26,23.18
1993-01-27,23.9
1993-01-28,25.88
1993-01-29,25.7
1993-01-30,19.76
1993-01-31,16.7
1993-02-01,20.12
1993-02-02,20.48
1993-02-03,28.04
1993-02-04,21.92
1993-02-05,32.72
1993-02-06,31.1
1993-02-07,24.44
1993-02-08,31.82
1993-02-09,31.64
1993-02-10,30.02
1993-02-11,26.24
1993-02-12,26.6
1993-02-13,14.72
1993-02-14,12.02
1993-02-15,22.46
1993-02-16,-6.34
1993-02-17,6.8
1993-02-18,19.22
1993-02-19,29.66
1993-02-20,17.6
1993-02-21,17.96
1993-02-22,21.56
1993-02-23,26.42
1993-02-24,18.32
1993-02-25,-0.22
1993-02-26,1.4
1993-02-27,4.82
1993-02-28,9.68
1993-03-01,19.22
1993-03-02,32.0
1993-03-03,32.0
1993-03-04,32.0
1993-03-05,27.86
1993-03-06,27.14
1993-03-07,26.96
1993-03-08,28.22
1993-03-09,32.54
1993-03-10,29.48
1993-03-11,29.12
1993-03-12,26.24
1993-03-13,28.22
1993-03-14,37.58
1993-03-15,35.06
1993-03-16,33.98
1993-03-17,35.24
1993-03-18,36.5
1993-03-19,31.1
1993-03-20,32.9
1993-03-21,26.06
1993-03-22,29.12
1993-03-23,36.86
1993-03-24,30.56
1993-03-25,21.2
1993-03-26,24.98
1993-03-27,27.86
1993-03-28,29.66
1993-03-29,30.02
1993-03-30,26.96
1993-03-31,32.18
1993-04-01,25.7
1993-04-02,30.56
1993-04-03,35.78
1993-04-04,31.82
1993-04-05,26.06
1993-04-06,25.52
1993-04-07,28.76
1993-04-08,40.1
1993-04-09,29.66
1993-04-10,28.58
1993-04-11,23.36
1993-04-12,16.16
1993-04-13,28.94
1993-04-14,26.06
1993-04-15,35.06
1993-04-16,28.22
1993-04-17,32.36
1993-04-18,27.68
1993-04-19,22.46
1993-04-20,29.3
1993-04-21,31.28
1993-04-22,31.46
1993-04-23,30.74
1993-04-24,31.64
1993-04-25,32.54
1993-04-26,27.86
1993-04-27,25.34
1993-04-28,27.32
1993-04-29,37.22
1993-04-30,33.44
1993-05-01,27.86
1993-05-02,37.58
1993-05-03,35.24
1993-05-04,28.4
1993-05-05,25.52
1993-05-06,38.66
1993-05-07,29.3
1993-05-08,29.84
1993-05-09,28.58
1993-05-10,32.9
1993-05-11,63.68
1993-05-12,31.64
1993-05-13,31.82
1993-05-14,30.56
1993-05-15,35.96
1993-05-16,32.72
1993-05-17,33.26
1993-05-18,35.96
1993-05-19,34.7
1993-05-20,39.2
1993-05-21,37.58
1993-05-22,62.06
1993-05-23,31.64
1993-05-24,34.52
1993-05-25,40.28
1993-05-26,44.78
1993-05-27,36.68
1993-05-28,35.24
1993-05-29,33.98
1993-05-30,42.08
1993-05-31,41.72
1993-06-01,37.94
1993-06-02,33.44
1993-06-03,34.34
1993-06-04,39.02
1993-06-05,31.28
1993-06-06,39.2
1993-06-07,34.52
1993-06-08,33.62
1993-06-09,33.08
1993-06-10,39.92
1993-06-11,34.88
1993-06-12,24.62
1993-06-13,31.82
1993-06-14,37.58
1993-06-15,43.52
1993-06-16,39.02
1993-06-17,37.04
1993-06-18,42.44
1993-06-19,45.32
1993-06-20,44.78
1993-06-21,48.38
1993-06-22,32.0
1993-06-23,26.6
1993-06-24,
1993-06-25,
1993-06-26,
1993-06-27,
1993-06-28,
1993-06-29,
1993-06-30,
1993-07-01,
1993-07-02,44.24
1993-07-03,33.08
1993-07-04,45.68
1993-07-05,40.46
1993-07-06,40.28
1993-07-07,40.1
1993-07-08,40.46
1993-07-09,41.9
1993-07-10,38.3
1993-07-11,41.18
1993-07-12,35.6
1993-07-13,36.5
1993-07-14,34.52
1993-07-15,35.96
1993-07-16,32.54
1993-07-17,35.78
1993-07-18,36.32
1993-07-19,50.54
1993-07-20,44.6
1993-07-21,34.52
1993-07-22,47.66
1993-07-23,45.68
1993-07-24,44.78
1993-07-25,46.4
1993-07-26,38.3
1993-07-27,43.7
1993-07-28,48.2
1993-07-29,48.74
1993-07-30,36.86
1993-07-31,41.18
1993-08-01,47.84
1993-08-02,51.62
1993-08-03,53.6
1993-08-04,56.84
1993-08-05,51.26
1993-08-06,50.36
1993-08-07,50.0
1993-08-08,44.96
1993-08-09,44.06
1993-08-10,43.88
1993-08-11,43.7
1993-08-12,45.14
1993-08-13,41.36
1993-08-14,42.08
1993-08-15,40.82
1993-08-16,
1993-08-17,
1993-08-18,
1993-08-19,
1993-08-20,
1993-08-21,
1993-08-22,
1993-08-23,
1993-08-24,
1993-08-25,
1993-08-26,
1993-08-27,
1993-08-28,
1993-08-29,
1993-08-30,
1993-08-31,
1993-09-01,
1993-09-02,
1993-09-03,
1993-09-04,
1993-09-05,
1993-09-06,
1993-09-07,
1993-09-08,
1993-09-09,
1993-09-10,
1993-09-11,
1993-09-12,
1993-09-13,
1993-09-14,
1993-09-15,
1993-09-16,55.04
1993-09-17,36.5
1993-09-18,35.24
1993-09-19,32.0
1993-09-20,31.1
1993-09-21,26.06
1993-09-22,29.3
1993-09-23,28.58
1993-09-24,
1993-09-25,35.06
1993-09-26,39.2
1993-09-27,42.62
1993-09-28,42.98
1993-09-29,44.24
1993-09-30,45.68
1993-10-01,43.34
1993-10-02,42.62
1993-10-03,43.34
1993-10-04,46.4
1993-10-05,47.48
1993-10-06,46.04
1993-10-07,41.18
1993-10-08,29.48
1993-10-09,29.48
1993-10-10,43.16
1993-10-11,41.18
1993-10-12,42.44
1993-10-13,41.72
1993-10-14,
1993-10-15,40.46
1993-10-16,37.04
1993-10-17,28.4
1993-10-18,27.86
1993-10-19,29.12
1993-10-20,32.36
1993-10-21,36.86
1993-10-22,34.16
1993-10-23,34.52
1993-10-24,34.52
1993-10-25,
1993-10-26,
1993-10-27,
1993-10-28,35.42
1993-10-29,-60.52
1993-10-30,32.0
1993-10-31,36.14
1993-11-01,
1993-11-02,24.08
1993-11-03,27.14
1993-11-04,27.32
1993-11-05,23.72
1993-11-06,23.72
1993-11-07,24.08
1993-11-08,23.18
1993-11-09,25.88
1993-11-10,27.86
1993-11-11,26.42
1993-11-12,25.88
1993-11-13,27.14
1993-11-14,24.8
1993-11-15,20.66
1993-11-16,22.82
1993-11-17,26.6
1993-11-18,27.86
1993-11-19,19.22
1993-11-20,
1993-11-21,
1993-11-22,29.12
1993-11-23,
1993-11-24,5.72
1993-11-25,6.62
1993-11-26,
1993-11-27,23.0
1993-11-28,30.38
1993-11-29,33.98
1993-11-30,30.02
1993-12-01,31.64
1993-12-02,
1993-12-03,24.62
1993-12-04,31.28
1993-12-05,
1993-12-06,21.38
1993-12-07,29.48
1993-12-08,32.0
1993-12-09,28.76
1993-12-10,36.5
1993-12-11,39.02
1993-12-12,23.54
1993-12-13,21.02
1993-12-14,
1993-12-15,22.64
1993-12-16,19.04
1993-12-17,
1993-12-18,19.94
1993-12-19,11.3
1993-12-20,16.52
1993-12-21,17.96
1993-12-22,
1993-12-23,
1993-12-24,28.58
1993-12-25,21.02
1993-12-26,24.8
1993-12-27,23.36
1993-12-28,
1993-12-29,
1993-12-30,
1993-12-31,
1994-01-01,31.1
1994-01-02,30.74
1994-01-03,31.64
1994-01-04,33.44
1994-01-05,27.86
1994-01-06,
1994-01-07,18.5
1994-01-08,29.66
1994-01-09,30.92
1994-01-10,22.46
1994-01-11,32.36
1994-01-12,26.78
1994-01-13,25.34
1994-01-14,26.42
1994-01-15,26.6
1994-01-16,21.02
1994-01-17,25.52
1994-01-18,
1994-01-19,24.26
1994-01-20,23.72
1994-01-21,40.1
1994-01-22,32.36
1994-01-23,34.34
1994-01-24,30.92
1994-01-25,20.66
1994-01-26,
1994-01-27,15.26
1994-01-28,23.0
1994-01-29,17.42
1994-01-30,20.12
1994-01-31,21.02
1994-02-01,18.68
1994-02-02,14.18
1994-02-03,15.26
1994-02-04,15.26
1994-02-05,16.34
1994-02-06,21.02
1994-02-07,29.12
1994-02-08,19.04
1994-02-09,17.78
1994-02-10,29.84
1994-02-11,20.48
1994-02-12,9.68
1994-02-13,20.48
1994-02-14,30.02
1994-02-15,24.08
1994-02-16,
1994-02-17,30.2
1994-02-18,
1994-02-19,22.1
1994-02-20,22.64
1994-02-21,24.62
1994-02-22,19.04
1994-02-23,27.32
1994-02-24,
1994-02-25,29.3
1994-02-26,31.64
1994-02-27,
1994-02-28,32.0
1994-03-01,31.28
1994-03-02,32.0
1994-03-03,32.54
1994-03-04,
1994-03-05,30.56
1994-03-06,24.8
1994-03-07,23.0
1994-03-08,26.06
1994-03-09,27.32
1994-03-10,33.08
1994-03-11,29.3
1994-03-12,
1994-03-13,
1994-03-14,27.32
1994-03-15,32.54
1994-03-16,28.4
1994-03-17,25.52
1994-03-18,25.16
1994-03-19,21.02
1994-03-20,17.96
1994-03-21,33.08
1994-03-22,19.76
1994-03-23,17.78
1994-03-24,27.86
1994-03-25,23.72
1994-03-26,22.46
1994-03-27,26.06
1994-03-28,28.76
1994-03-29,32.54
1994-03-30,34.16
1994-03-31,29.84
1994-04-01,31.82
1994-04-02,28.76
1994-04-03,32.9
1994-04-04,28.58
1994-04-05,23.9
1994-04-06,32.72
1994-04-07,26.96
1994-04-08,31.28
1994-04-09,30.2
1994-04-10,29.3
1994-04-11,27.86
1994-04-12,29.84
1994-04-13,26.78
1994-04-14,32.36
1994-04-15,
1994-04-16,32.36
1994-04-17,36.68
1994-04-18,32.36
1994-04-19,38.84
1994-04-20,34.34
1994-04-21,30.74
1994-04-22,27.32
1994-04-23,29.12
1994-04-24,28.94
1994-04-25,30.2
1994-04-26,30.56
1994-04-27,31.46
1994-04-28,32.72
1994-04-29,29.3
1994-04-30,33.44
1994-05-01,23.9
1994-05-02,26.24
1994-05-03,39.38
1994-05-04,39.92
1994-05-05,40.1
1994-05-06,43.7
1994-05-07,44.06
1994-05-08,44.24
1994-05-09,40.1
1994-05-10,40.64
1994-05-11,42.8
1994-05-12,35.42
1994-05-13,33.44
1994-05-14,32.9
1994-05-15,33.8
1994-05-16,32.0
1994-05-17,31.64
1994-05-18,32.54
1994-05-19,37.58
1994-05-20,37.58
1994-05-21,38.12
1994-05-22,31.1
1994-05-23,35.96
1994-05-24,39.92
1994-05-25,43.88
1994-05-26,39.38
1994-05-27,
1994-05-28,33.98
1994-05-29,37.4
1994-05-30,32.9
1994-05-31,48.02
1994-06-01,40.46
1994-06-02,36.14
1994-06-03,38.3
1994-06-04,34.16
1994-06-05,43.16
1994-06-06,33.08
1994-06-07,32.0
1994-06-08,28.94
1994-06-09,37.04
1994-06-10,41.9
1994-06-11,46.58
1994-06-12,49.46
1994-06-13,51.62
1994-06-14,31.64
1994-06-15,32.54
1994-06-16,27.86
1994-06-17,34.88
1994-06-18,38.12
1994-06-19,34.16
1994-06-20,42.08
1994-06-21,43.88
1994-06-22,45.86
1994-06-23,42.08
1994-06-24,36.68
1994-06-25,39.2
1994-06-26,40.28
1994-06-27,39.92
1994-06-28,46.04
1994-06-29,48.92
1994-06-30,45.14
1994-07-01,43.7
1994-07-02,51.08
1994-07-03,34.52
1994-07-04,38.3
1994-07-05,40.46
1994-07-06,34.88
1994-07-07,47.66
1994-07-08,51.08
1994-07-09,51.08
1994-07-10,44.24
1994-07-11,45.68
1994-07-12,42.62
1994-07-13,43.88
1994-07-14,45.86
1994-07-15,44.78
1994-07-16,49.64
1994-07-17,56.3
1994-07-18,49.1
1994-07-19,49.82
1994-07-20,54.86
1994-07-21,62.24
1994-07-22,57.74
1994-07-23,50.36
1994-07-24,53.06
1994-07-25,43.34
1994-07-26,45.14
1994-07-27,48.56
1994-07-28,52.88
1994-07-29,51.62
1994-07-30,48.02
1994-07-31,47.12
1994-08-01,50.0
1994-08-02,48.74
1994-08-03,47.48
1994-08-04,46.4
1994-08-05,44.96
1994-08-06,43.88
1994-08-07,45.5
1994-08-08,44.06
1994-08-09,38.66
1994-08-10,44.78
1994-08-11,44.96
1994-08-12,44.96
1994-08-13,45.68
1994-08-14,46.94
1994-08-15,44.78
1994-08-16,41.9
1994-08-17,41.36
1994-08-18,43.7
1994-08-19,41.0
1994-08-20,41.0
1994-08-21,39.2
1994-08-22,41.54
1994-08-23,42.62
1994-08-24,44.24
1994-08-25,44.24
1994-08-26,44.96
1994-08-27,43.52
1994-08-28,42.98
1994-08-29,39.38
1994-08-30,42.08
1994-08-31,44.6
1994-09-01,42.26
1994-09-02,39.74
1994-09-03,46.04
1994-09-04,35.42
1994-09-05,41.72
1994-09-06,45.86
1994-09-07,44.42
1994-09-08,47.66
1994-09-09,40.64
1994-09-10,39.2
1994-09-11,38.48
1994-09-12,31.28
1994-09-13,32.54
1994-09-14,34.7
1994-09-15,36.86
1994-09-16,41.72